Year,Month,Day,Hour,Minute,Value (Times are PST for temperature in C)
2018,06,04,00,00,9.60
2018,06,04,00,01,9.60
2018,06,04,00,02,9.60
2018,06,04,00,03,9.60
2018,06,04,00,04,9.60
2018,06,04,00,05,9.60
2018,06,04,00,06,9.60
2018,06,04,00,07,9.60
2018,06,04,00,08,9.60
2018,06,04,00,09,9.60
2018,06,04,00,10,9.70
2018,06,04,00,11,9.80
2018,06,04,00,12,9.80
2018,06,04,00,13,9.80
2018,06,04,00,14,9.90
2018,06,04,00,15,9.90
2018,06,04,00,16,9.90
2018,06,04,00,17,9.90
2018,06,04,00,18,9.80
2018,06,04,00,19,9.80
2018,06,04,00,20,9.80
2018,06,04,00,21,9.80
2018,06,04,00,22,9.80
2018,06,04,00,23,9.80
2018,06,04,00,24,9.80
2018,06,04,00,25,9.80
2018,06,04,00,26,9.70
2018,06,04,00,27,9.70
2018,06,04,00,28,9.70
2018,06,04,00,29,9.60
2018,06,04,00,30,9.50
2018,06,04,00,31,9.50
2018,06,04,00,32,9.40
2018,06,04,00,33,9.30
2018,06,04,00,34,9.30
2018,06,04,00,35,9.20
2018,06,04,00,36,9.20
2018,06,04,00,37,9.10
2018,06,04,00,38,9.00
2018,06,04,00,39,8.90
2018,06,04,00,40,8.80
2018,06,04,00,41,8.80
2018,06,04,00,42,8.70
2018,06,04,00,43,8.60
2018,06,04,00,44,8.60
2018,06,04,00,45,8.50
2018,06,04,00,46,8.40
2018,06,04,00,47,8.40
2018,06,04,00,48,8.40
2018,06,04,00,49,8.30
2018,06,04,00,50,8.30
2018,06,04,00,51,8.30
2018,06,04,00,52,8.30
2018,06,04,00,53,8.30
2018,06,04,00,54,8.30
2018,06,04,00,55,8.30
2018,06,04,00,56,8.30
2018,06,04,00,57,8.40
2018,06,04,00,58,8.40
2018,06,04,00,59,8.40
2018,06,04,01,00,8.40
2018,06,04,01,01,8.40
2018,06,04,01,02,8.40
2018,06,04,01,03,8.40
2018,06,04,01,04,8.40
2018,06,04,01,05,8.40
2018,06,04,01,06,8.30
2018,06,04,01,07,8.30
2018,06,04,01,08,8.30
2018,06,04,01,09,8.30
2018,06,04,01,10,8.20
2018,06,04,01,11,8.20
2018,06,04,01,12,8.10
2018,06,04,01,13,8.10
2018,06,04,01,14,8.00
2018,06,04,01,15,8.00
2018,06,04,01,16,7.90
2018,06,04,01,17,7.90
2018,06,04,01,18,7.80
2018,06,04,01,19,7.80
2018,06,04,01,20,7.80
2018,06,04,01,21,7.70
2018,06,04,01,22,7.70
2018,06,04,01,23,7.70
2018,06,04,01,24,7.70
2018,06,04,01,25,7.60
2018,06,04,01,26,7.60
2018,06,04,01,27,7.60
2018,06,04,01,28,7.60
2018,06,04,01,29,7.50
2018,06,04,01,30,7.50
2018,06,04,01,31,7.50
2018,06,04,01,32,7.50
2018,06,04,01,33,7.50
2018,06,04,01,34,7.50
2018,06,04,01,35,7.50
2018,06,04,01,36,7.40
2018,06,04,01,37,7.40
2018,06,04,01,38,7.40
2018,06,04,01,39,7.40
2018,06,04,01,40,7.40
2018,06,04,01,41,7.50
2018,06,04,01,42,7.50
2018,06,04,01,43,7.60
2018,06,04,01,44,7.60
2018,06,04,01,45,7.60
2018,06,04,01,46,7.60
2018,06,04,01,47,7.60
2018,06,04,01,48,7.60
2018,06,04,01,49,7.60
2018,06,04,01,50,7.60
2018,06,04,01,51,7.60
2018,06,04,01,52,7.60
2018,06,04,01,53,7.60
2018,06,04,01,54,7.60
2018,06,04,01,55,7.60
2018,06,04,01,56,7.70
2018,06,04,01,57,7.70
2018,06,04,01,58,7.70
2018,06,04,01,59,7.80
2018,06,04,02,00,7.80
2018,06,04,02,01,7.80
2018,06,04,02,02,7.80
2018,06,04,02,03,7.90
2018,06,04,02,04,7.90
2018,06,04,02,05,7.90
2018,06,04,02,06,7.90
2018,06,04,02,07,7.90
2018,06,04,02,08,7.90
2018,06,04,02,09,7.80
2018,06,04,02,10,7.80
2018,06,04,02,11,7.80
2018,06,04,02,12,7.70
2018,06,04,02,13,7.70
2018,06,04,02,14,7.60
2018,06,04,02,15,7.60
2018,06,04,02,16,7.50
2018,06,04,02,17,7.50
2018,06,04,02,18,7.40
2018,06,04,02,19,7.40
2018,06,04,02,20,7.40
2018,06,04,02,21,7.40
2018,06,04,02,22,7.30
2018,06,04,02,23,7.30
2018,06,04,02,24,7.30
2018,06,04,02,25,7.30
2018,06,04,02,26,7.30
2018,06,04,02,27,7.30
2018,06,04,02,28,7.30
2018,06,04,02,29,7.30
2018,06,04,02,30,7.20
2018,06,04,02,31,7.20
2018,06,04,02,32,7.20
2018,06,04,02,33,7.10
2018,06,04,02,34,7.10
2018,06,04,02,35,7.10
2018,06,04,02,36,7.10
2018,06,04,02,37,7.10
2018,06,04,02,38,7.10
2018,06,04,02,39,7.20
2018,06,04,02,40,7.20
2018,06,04,02,41,7.20
2018,06,04,02,42,7.20
2018,06,04,02,43,7.20
2018,06,04,02,44,7.20
2018,06,04,02,45,7.20
2018,06,04,02,46,7.10
2018,06,04,02,47,7.10
2018,06,04,02,48,7.10
2018,06,04,02,49,7.10
2018,06,04,02,50,7.10
2018,06,04,02,51,7.00
2018,06,04,02,52,7.00
2018,06,04,02,53,7.00
2018,06,04,02,54,6.90
2018,06,04,02,55,6.90
2018,06,04,02,56,6.80
2018,06,04,02,57,6.80
2018,06,04,02,58,6.80
2018,06,04,02,59,6.90
2018,06,04,03,00,6.90
2018,06,04,03,01,7.00
2018,06,04,03,02,7.00
2018,06,04,03,03,7.10
2018,06,04,03,04,7.10
2018,06,04,03,05,7.10
2018,06,04,03,06,7.10
2018,06,04,03,07,7.10
2018,06,04,03,08,7.10
2018,06,04,03,09,7.10
2018,06,04,03,10,7.10
2018,06,04,03,11,7.10
2018,06,04,03,12,7.10
2018,06,04,03,13,7.10
2018,06,04,03,14,7.10
2018,06,04,03,15,7.10
2018,06,04,03,16,7.10
2018,06,04,03,17,7.10
2018,06,04,03,18,7.10
2018,06,04,03,19,7.10
2018,06,04,03,20,7.10
2018,06,04,03,21,7.10
2018,06,04,03,22,7.10
2018,06,04,03,23,7.10
2018,06,04,03,24,7.00
2018,06,04,03,25,7.00
2018,06,04,03,26,7.00
2018,06,04,03,27,7.00
2018,06,04,03,28,6.90
2018,06,04,03,29,6.90
2018,06,04,03,30,6.90
2018,06,04,03,31,6.90
2018,06,04,03,32,6.90
2018,06,04,03,33,6.90
2018,06,04,03,34,6.90
2018,06,04,03,35,6.90
2018,06,04,03,36,6.90
2018,06,04,03,37,6.80
2018,06,04,03,38,6.80
2018,06,04,03,39,6.80
2018,06,04,03,40,6.70
2018,06,04,03,41,6.70
2018,06,04,03,42,6.60
2018,06,04,03,43,6.60
2018,06,04,03,44,6.50
2018,06,04,03,45,6.50
2018,06,04,03,46,6.40
2018,06,04,03,47,6.40
2018,06,04,03,48,6.40
2018,06,04,03,49,6.30
2018,06,04,03,50,6.30
2018,06,04,03,51,6.30
2018,06,04,03,52,6.30
2018,06,04,03,53,6.30
2018,06,04,03,54,6.30
2018,06,04,03,55,6.30
2018,06,04,03,56,6.20
2018,06,04,03,57,6.20
2018,06,04,03,58,6.20
2018,06,04,03,59,6.30
2018,06,04,04,00,6.40
2018,06,04,04,01,6.50
2018,06,04,04,02,6.60
2018,06,04,04,03,6.70
2018,06,04,04,04,6.80
2018,06,04,04,05,6.80
2018,06,04,04,06,6.90
2018,06,04,04,07,6.90
2018,06,04,04,08,6.90
2018,06,04,04,09,6.90
2018,06,04,04,10,6.90
2018,06,04,04,11,6.90
2018,06,04,04,12,7.00
2018,06,04,04,13,7.00
2018,06,04,04,14,7.00
2018,06,04,04,15,7.10
2018,06,04,04,16,7.10
2018,06,04,04,17,7.20
2018,06,04,04,18,7.20
2018,06,04,04,19,7.20
2018,06,04,04,20,7.20
2018,06,04,04,21,7.20
2018,06,04,04,22,7.20
2018,06,04,04,23,7.10
2018,06,04,04,24,7.10
2018,06,04,04,25,7.10
2018,06,04,04,26,7.10
2018,06,04,04,27,7.10
2018,06,04,04,28,7.10
2018,06,04,04,29,7.10
2018,06,04,04,30,7.10
2018,06,04,04,31,7.10
2018,06,04,04,32,7.10
2018,06,04,04,33,7.10
2018,06,04,04,34,7.10
2018,06,04,04,35,7.10
2018,06,04,04,36,7.10
2018,06,04,04,37,7.10
2018,06,04,04,38,7.10
2018,06,04,04,39,7.10
2018,06,04,04,40,7.10
2018,06,04,04,41,7.10
2018,06,04,04,42,7.00
2018,06,04,04,43,7.00
2018,06,04,04,44,7.00
2018,06,04,04,45,6.90
2018,06,04,04,46,6.90
2018,06,04,04,47,6.90
2018,06,04,04,48,6.90
2018,06,04,04,49,6.90
2018,06,04,04,50,6.90
2018,06,04,04,51,6.80
2018,06,04,04,52,6.80
2018,06,04,04,53,6.80
2018,06,04,04,54,6.80
2018,06,04,04,55,6.80
2018,06,04,04,56,6.70
2018,06,04,04,57,6.70
2018,06,04,04,58,6.70
2018,06,04,04,59,6.70
2018,06,04,05,00,6.60
2018,06,04,05,01,6.60
2018,06,04,05,02,6.60
2018,06,04,05,03,6.50
2018,06,04,05,04,6.50
2018,06,04,05,05,6.40
2018,06,04,05,06,6.40
2018,06,04,05,07,6.40
2018,06,04,05,08,6.40
2018,06,04,05,09,6.50
2018,06,04,05,10,6.50
2018,06,04,05,11,6.60
2018,06,04,05,12,6.80
2018,06,04,05,13,6.90
2018,06,04,05,14,7.00
2018,06,04,05,15,7.20
2018,06,04,05,16,7.30
2018,06,04,05,17,7.40
2018,06,04,05,18,7.60
2018,06,04,05,19,7.70
2018,06,04,05,20,7.90
2018,06,04,05,21,8.00
2018,06,04,05,22,8.20
2018,06,04,05,23,8.30
2018,06,04,05,24,8.40
2018,06,04,05,25,8.40
2018,06,04,05,26,8.40
2018,06,04,05,27,8.50
2018,06,04,05,28,8.60
2018,06,04,05,29,8.60
2018,06,04,05,30,8.50
2018,06,04,05,31,8.40
2018,06,04,05,32,8.40
2018,06,04,05,33,8.30
2018,06,04,05,34,8.30
2018,06,04,05,35,8.20
2018,06,04,05,36,8.20
2018,06,04,05,37,8.10
2018,06,04,05,38,8.00
2018,06,04,05,39,7.90
2018,06,04,05,40,7.90
2018,06,04,05,41,7.80
2018,06,04,05,42,7.70
2018,06,04,05,43,7.70
2018,06,04,05,44,7.70
2018,06,04,05,45,7.80
2018,06,04,05,46,7.90
2018,06,04,05,47,8.00
2018,06,04,05,48,8.20
2018,06,04,05,49,8.30
2018,06,04,05,50,8.40
2018,06,04,05,51,8.40
2018,06,04,05,52,8.40
2018,06,04,05,53,8.40
2018,06,04,05,54,8.40
2018,06,04,05,55,8.40
2018,06,04,05,56,8.40
2018,06,04,05,57,8.30
2018,06,04,05,58,8.30
2018,06,04,05,59,8.20
2018,06,04,06,00,8.20
2018,06,04,06,01,8.20
2018,06,04,06,02,8.20
2018,06,04,06,03,8.20
2018,06,04,06,04,8.20
2018,06,04,06,05,8.20
2018,06,04,06,06,8.20
2018,06,04,06,07,8.10
2018,06,04,06,08,8.10
2018,06,04,06,09,8.00
2018,06,04,06,10,8.00
2018,06,04,06,11,7.90
2018,06,04,06,12,7.90
2018,06,04,06,13,7.80
2018,06,04,06,14,7.80
2018,06,04,06,15,7.70
2018,06,04,06,16,7.60
2018,06,04,06,17,7.60
2018,06,04,06,18,7.60
2018,06,04,06,19,7.60
2018,06,04,06,20,7.50
2018,06,04,06,21,7.50
2018,06,04,06,22,7.50
2018,06,04,06,23,7.40
2018,06,04,06,24,7.40
2018,06,04,06,25,7.40
2018,06,04,06,26,7.40
2018,06,04,06,27,7.30
2018,06,04,06,28,7.30
2018,06,04,06,29,7.20
2018,06,04,06,30,7.20
2018,06,04,06,31,7.20
2018,06,04,06,32,7.20
2018,06,04,06,33,7.10
2018,06,04,06,34,7.10
2018,06,04,06,35,7.10
2018,06,04,06,36,7.00
2018,06,04,06,37,7.00
2018,06,04,06,38,6.90
2018,06,04,06,39,7.00
2018,06,04,06,40,7.00
2018,06,04,06,41,7.00
2018,06,04,06,42,6.90
2018,06,04,06,43,6.90
2018,06,04,06,44,6.90
2018,06,04,06,45,6.90
2018,06,04,06,46,7.00
2018,06,04,06,47,7.00
2018,06,04,06,48,7.00
2018,06,04,06,49,6.90
2018,06,04,06,50,6.90
2018,06,04,06,51,7.00
2018,06,04,06,52,7.00
2018,06,04,06,53,7.00
2018,06,04,06,54,7.10
2018,06,04,06,55,7.10
2018,06,04,06,56,7.20
2018,06,04,06,57,7.30
2018,06,04,06,58,7.40
2018,06,04,06,59,7.60
2018,06,04,07,00,7.70
2018,06,04,07,01,7.90
2018,06,04,07,02,8.10
2018,06,04,07,03,8.20
2018,06,04,07,04,8.30
2018,06,04,07,05,8.50
2018,06,04,07,06,8.60
2018,06,04,07,07,8.70
2018,06,04,07,08,8.80
2018,06,04,07,09,8.90
2018,06,04,07,10,9.10
2018,06,04,07,11,9.20
2018,06,04,07,12,9.30
2018,06,04,07,13,9.40
2018,06,04,07,14,9.40
2018,06,04,07,15,9.50
2018,06,04,07,16,9.50
2018,06,04,07,17,9.60
2018,06,04,07,18,9.70
2018,06,04,07,19,9.70
2018,06,04,07,20,9.80
2018,06,04,07,21,9.80
2018,06,04,07,22,9.90
2018,06,04,07,23,10.00
2018,06,04,07,24,10.00
2018,06,04,07,25,10.10
2018,06,04,07,26,10.20
2018,06,04,07,27,10.20
2018,06,04,07,28,10.30
2018,06,04,07,29,10.40
2018,06,04,07,30,10.50
2018,06,04,07,31,10.50
2018,06,04,07,32,10.60
2018,06,04,07,33,10.70
2018,06,04,07,34,10.80
2018,06,04,07,35,10.90
2018,06,04,07,36,11.00
2018,06,04,07,37,11.00
2018,06,04,07,38,11.10
2018,06,04,07,39,11.20
2018,06,04,07,40,11.30
2018,06,04,07,41,11.40
2018,06,04,07,42,11.50
2018,06,04,07,43,11.50
2018,06,04,07,44,11.60
2018,06,04,07,45,11.70
2018,06,04,07,46,11.70
2018,06,04,07,47,11.80
2018,06,04,07,48,11.80
2018,06,04,07,49,11.90
2018,06,04,07,50,12.00
2018,06,04,07,51,12.10
2018,06,04,07,52,12.20
2018,06,04,07,53,12.30
2018,06,04,07,54,12.40
2018,06,04,07,55,12.50
2018,06,04,07,56,12.50
2018,06,04,07,57,12.60
2018,06,04,07,58,12.60
2018,06,04,07,59,12.60
2018,06,04,08,00,12.60
2018,06,04,08,01,12.60
2018,06,04,08,02,12.60
2018,06,04,08,03,12.60
2018,06,04,08,04,12.60
2018,06,04,08,05,12.60
2018,06,04,08,06,12.60
2018,06,04,08,07,12.50
2018,06,04,08,08,12.50
2018,06,04,08,09,12.40
2018,06,04,08,10,12.50
2018,06,04,08,11,12.50
2018,06,04,08,12,12.50
2018,06,04,08,13,12.50
2018,06,04,08,14,12.60
2018,06,04,08,15,12.60
2018,06,04,08,16,12.60
2018,06,04,08,17,12.70
2018,06,04,08,18,12.70
2018,06,04,08,19,12.80
2018,06,04,08,20,12.80
2018,06,04,08,21,12.90
2018,06,04,08,22,13.00
2018,06,04,08,23,13.10
2018,06,04,08,24,13.20
2018,06,04,08,25,13.30
2018,06,04,08,26,13.30
2018,06,04,08,27,13.40
2018,06,04,08,28,13.40
2018,06,04,08,29,13.40
2018,06,04,08,30,13.50
2018,06,04,08,31,13.50
2018,06,04,08,32,13.50
2018,06,04,08,33,13.60
2018,06,04,08,34,13.70
2018,06,04,08,35,13.70
2018,06,04,08,36,13.80
2018,06,04,08,37,13.80
2018,06,04,08,38,13.80
2018,06,04,08,39,13.90
2018,06,04,08,40,13.90
2018,06,04,08,41,14.00
2018,06,04,08,42,14.00
2018,06,04,08,43,14.00
2018,06,04,08,44,14.00
2018,06,04,08,45,14.00
2018,06,04,08,46,14.00
2018,06,04,08,47,14.00
2018,06,04,08,48,14.00
2018,06,04,08,49,14.00
2018,06,04,08,50,14.00
2018,06,04,08,51,14.10
2018,06,04,08,52,14.20
2018,06,04,08,53,14.20
2018,06,04,08,54,14.30
2018,06,04,08,55,14.30
2018,06,04,08,56,14.40
2018,06,04,08,57,14.50
2018,06,04,08,58,14.50
2018,06,04,08,59,14.50
2018,06,04,09,00,14.60
2018,06,04,09,01,14.60
2018,06,04,09,02,14.60
2018,06,04,09,03,14.60
2018,06,04,09,04,14.60
2018,06,04,09,05,14.50
2018,06,04,09,06,14.50
2018,06,04,09,07,14.40
2018,06,04,09,08,14.40
2018,06,04,09,09,14.40
2018,06,04,09,10,14.40
2018,06,04,09,11,14.50
2018,06,04,09,12,14.50
2018,06,04,09,13,14.60
2018,06,04,09,14,14.70
2018,06,04,09,15,14.80
2018,06,04,09,16,14.90
2018,06,04,09,17,14.90
2018,06,04,09,18,15.00
2018,06,04,09,19,15.00
2018,06,04,09,20,15.00
2018,06,04,09,21,14.90
2018,06,04,09,22,14.90
2018,06,04,09,23,14.90
2018,06,04,09,24,14.80
2018,06,04,09,25,14.80
2018,06,04,09,26,14.70
2018,06,04,09,27,14.60
2018,06,04,09,28,14.50
2018,06,04,09,29,14.50
2018,06,04,09,30,14.40
2018,06,04,09,31,14.30
2018,06,04,09,32,14.30
2018,06,04,09,33,14.30
2018,06,04,09,34,14.30
2018,06,04,09,35,14.20
2018,06,04,09,36,14.20
2018,06,04,09,37,14.20
2018,06,04,09,38,14.20
2018,06,04,09,39,14.20
2018,06,04,09,40,14.20
2018,06,04,09,41,14.20
2018,06,04,09,42,14.20
2018,06,04,09,43,14.20
2018,06,04,09,44,14.30
2018,06,04,09,45,14.30
2018,06,04,09,46,14.40
2018,06,04,09,47,14.60
2018,06,04,09,48,14.70
2018,06,04,09,49,14.80
2018,06,04,09,50,14.80
2018,06,04,09,51,14.90
2018,06,04,09,52,14.90
2018,06,04,09,53,14.90
2018,06,04,09,54,14.90
2018,06,04,09,55,15.00
2018,06,04,09,56,15.00
2018,06,04,09,57,15.00
2018,06,04,09,58,15.10
2018,06,04,09,59,15.10
2018,06,04,10,00,15.20
2018,06,04,10,01,15.30
2018,06,04,10,02,15.30
2018,06,04,10,03,15.30
2018,06,04,10,04,15.30
2018,06,04,10,05,15.30
2018,06,04,10,06,15.40
2018,06,04,10,07,15.40
2018,06,04,10,08,15.50
2018,06,04,10,09,15.60
2018,06,04,10,10,15.70
2018,06,04,10,11,15.70
2018,06,04,10,12,15.70
2018,06,04,10,13,15.70
2018,06,04,10,14,15.70
2018,06,04,10,15,15.70
2018,06,04,10,16,15.70
2018,06,04,10,17,15.60
2018,06,04,10,18,15.60
2018,06,04,10,19,15.50
2018,06,04,10,20,15.40
2018,06,04,10,21,15.30
2018,06,04,10,22,15.30
2018,06,04,10,23,15.30
2018,06,04,10,24,15.20
2018,06,04,10,25,15.20
2018,06,04,10,26,15.20
2018,06,04,10,27,15.10
2018,06,04,10,28,15.10
2018,06,04,10,29,15.10
2018,06,04,10,30,15.00
2018,06,04,10,31,15.00
2018,06,04,10,32,15.00
2018,06,04,10,33,14.90
2018,06,04,10,34,14.90
2018,06,04,10,35,15.00
2018,06,04,10,36,15.00
2018,06,04,10,37,15.10
2018,06,04,10,38,15.20
2018,06,04,10,39,15.20
2018,06,04,10,40,15.30
2018,06,04,10,41,15.40
2018,06,04,10,42,15.40
2018,06,04,10,43,15.40
2018,06,04,10,44,15.40
2018,06,04,10,45,15.40
2018,06,04,10,46,15.30
2018,06,04,10,47,15.30
2018,06,04,10,48,15.20
2018,06,04,10,49,15.10
2018,06,04,10,50,15.10
2018,06,04,10,51,15.10
2018,06,04,10,52,15.10
2018,06,04,10,53,15.20
2018,06,04,10,54,15.30
2018,06,04,10,55,15.40
2018,06,04,10,56,15.50
2018,06,04,10,57,15.60
2018,06,04,10,58,15.70
2018,06,04,10,59,15.70
2018,06,04,11,00,15.80
2018,06,04,11,01,15.90
2018,06,04,11,02,15.90
2018,06,04,11,03,15.80
2018,06,04,11,04,15.80
2018,06,04,11,05,15.80
2018,06,04,11,06,15.70
2018,06,04,11,07,15.70
2018,06,04,11,08,15.60
2018,06,04,11,09,15.50
2018,06,04,11,10,15.40
2018,06,04,11,11,15.30
2018,06,04,11,12,15.20
2018,06,04,11,13,15.10
2018,06,04,11,14,15.00
2018,06,04,11,15,14.90
2018,06,04,11,16,14.90
2018,06,04,11,17,14.80
2018,06,04,11,18,14.60
2018,06,04,11,19,14.50
2018,06,04,11,20,14.40
2018,06,04,11,21,14.40
2018,06,04,11,22,14.40
2018,06,04,11,23,14.40
2018,06,04,11,24,14.50
2018,06,04,11,25,14.50
2018,06,04,11,26,14.60
2018,06,04,11,27,14.60
2018,06,04,11,28,14.60
2018,06,04,11,29,14.60
2018,06,04,11,30,14.70
2018,06,04,11,31,14.80
2018,06,04,11,32,14.80
2018,06,04,11,33,14.80
2018,06,04,11,34,14.80
2018,06,04,11,35,14.80
2018,06,04,11,36,14.80
2018,06,04,11,37,14.90
2018,06,04,11,38,14.90
2018,06,04,11,39,14.80
2018,06,04,11,40,14.80
2018,06,04,11,41,14.70
2018,06,04,11,42,14.70
2018,06,04,11,43,14.60
2018,06,04,11,44,14.60
2018,06,04,11,45,14.60
2018,06,04,11,46,14.70
2018,06,04,11,47,14.70
2018,06,04,11,48,14.60
2018,06,04,11,49,14.50
2018,06,04,11,50,14.40
2018,06,04,11,51,14.30
2018,06,04,11,52,14.30
2018,06,04,11,53,14.30
2018,06,04,11,54,14.40
2018,06,04,11,55,14.60
2018,06,04,11,56,14.50
2018,06,04,11,57,14.50
2018,06,04,11,58,14.40
2018,06,04,11,59,14.50
2018,06,04,12,00,14.60
2018,06,04,12,01,14.60
2018,06,04,12,02,14.60
2018,06,04,12,03,14.50
2018,06,04,12,04,14.50
2018,06,04,12,05,14.50
2018,06,04,12,06,14.50
2018,06,04,12,07,14.50
2018,06,04,12,08,14.40
2018,06,04,12,09,14.30
2018,06,04,12,10,14.20
2018,06,04,12,11,14.10
2018,06,04,12,12,14.10
2018,06,04,12,13,14.10
2018,06,04,12,14,14.10
2018,06,04,12,15,14.20
2018,06,04,12,16,14.10
2018,06,04,12,17,14.10
2018,06,04,12,18,14.10
2018,06,04,12,19,14.00
2018,06,04,12,20,14.00
2018,06,04,12,21,14.00
2018,06,04,12,22,14.00
2018,06,04,12,23,14.00
2018,06,04,12,24,13.90
2018,06,04,12,25,13.90
2018,06,04,12,26,13.80
2018,06,04,12,27,13.80
2018,06,04,12,28,13.80
2018,06,04,12,29,13.90
2018,06,04,12,30,13.90
2018,06,04,12,31,14.00
2018,06,04,12,32,14.00
2018,06,04,12,33,14.10
2018,06,04,12,34,14.10
2018,06,04,12,35,14.20
2018,06,04,12,36,14.30
2018,06,04,12,37,14.30
2018,06,04,12,38,14.40
2018,06,04,12,39,14.50
2018,06,04,12,40,14.60
2018,06,04,12,41,14.60
2018,06,04,12,42,14.60
2018,06,04,12,43,14.60
2018,06,04,12,44,14.60
2018,06,04,12,45,14.50
2018,06,04,12,46,14.40
2018,06,04,12,47,14.40
2018,06,04,12,48,14.40
2018,06,04,12,49,14.30
2018,06,04,12,50,14.30
2018,06,04,12,51,14.40
2018,06,04,12,52,14.30
2018,06,04,12,53,14.40
2018,06,04,12,54,14.40
2018,06,04,12,55,14.40
2018,06,04,12,56,14.40
2018,06,04,12,57,14.40
2018,06,04,12,58,14.40
2018,06,04,12,59,14.40
2018,06,04,13,00,14.50
2018,06,04,13,01,14.50
2018,06,04,13,02,14.60
2018,06,04,13,03,14.50
2018,06,04,13,04,14.40
2018,06,04,13,05,14.30
2018,06,04,13,06,14.30
2018,06,04,13,07,14.20
2018,06,04,13,08,14.20
2018,06,04,13,09,14.10
2018,06,04,13,10,14.10
2018,06,04,13,11,14.10
2018,06,04,13,12,14.10
2018,06,04,13,13,14.20
2018,06,04,13,14,14.20
2018,06,04,13,15,14.20
2018,06,04,13,16,14.20
2018,06,04,13,17,14.30
2018,06,04,13,18,14.30
2018,06,04,13,19,14.40
2018,06,04,13,20,14.40
2018,06,04,13,21,14.50
2018,06,04,13,22,14.60
2018,06,04,13,23,14.60
2018,06,04,13,24,14.60
2018,06,04,13,25,14.60
2018,06,04,13,26,14.60
2018,06,04,13,27,14.60
2018,06,04,13,28,14.60
2018,06,04,13,29,14.60
2018,06,04,13,30,14.60
2018,06,04,13,31,14.70
2018,06,04,13,32,14.60
2018,06,04,13,33,14.60
2018,06,04,13,34,14.60
2018,06,04,13,35,14.60
2018,06,04,13,36,14.60
2018,06,04,13,37,14.60
2018,06,04,13,38,14.70
2018,06,04,13,39,14.80
2018,06,04,13,40,15.00
2018,06,04,13,41,15.00
2018,06,04,13,42,15.10
2018,06,04,13,43,15.00
2018,06,04,13,44,15.00
2018,06,04,13,45,14.90
2018,06,04,13,46,14.90
2018,06,04,13,47,14.90
2018,06,04,13,48,14.90
2018,06,04,13,49,14.90
2018,06,04,13,50,14.90
2018,06,04,13,51,14.90
2018,06,04,13,52,14.80
2018,06,04,13,53,14.70
2018,06,04,13,54,14.70
2018,06,04,13,55,14.60
2018,06,04,13,56,14.60
2018,06,04,13,57,14.60
2018,06,04,13,58,14.70
2018,06,04,13,59,14.70
2018,06,04,14,00,14.80
2018,06,04,14,01,15.00
2018,06,04,14,02,15.00
2018,06,04,14,03,14.90
2018,06,04,14,04,14.90
2018,06,04,14,05,14.80
2018,06,04,14,06,14.70
2018,06,04,14,07,14.70
2018,06,04,14,08,14.70
2018,06,04,14,09,14.70
2018,06,04,14,10,14.80
2018,06,04,14,11,14.80
2018,06,04,14,12,14.80
2018,06,04,14,13,14.80
2018,06,04,14,14,14.80
2018,06,04,14,15,14.80
2018,06,04,14,16,14.80
2018,06,04,14,17,14.80
2018,06,04,14,18,14.80
2018,06,04,14,19,14.80
2018,06,04,14,20,14.80
2018,06,04,14,21,14.80
2018,06,04,14,22,14.90
2018,06,04,14,23,14.90
2018,06,04,14,24,14.90
2018,06,04,14,25,14.90
2018,06,04,14,26,15.00
2018,06,04,14,27,15.10
2018,06,04,14,28,15.10
2018,06,04,14,29,15.10
2018,06,04,14,30,15.00
2018,06,04,14,31,15.00
2018,06,04,14,32,15.00
2018,06,04,14,33,14.90
2018,06,04,14,34,14.90
2018,06,04,14,35,15.00
2018,06,04,14,36,15.00
2018,06,04,14,37,15.00
2018,06,04,14,38,15.00
2018,06,04,14,39,15.10
2018,06,04,14,40,15.10
2018,06,04,14,41,15.10
2018,06,04,14,42,15.00
2018,06,04,14,43,15.00
2018,06,04,14,44,15.00
2018,06,04,14,45,15.00
2018,06,04,14,46,15.10
2018,06,04,14,47,15.10
2018,06,04,14,48,15.10
2018,06,04,14,49,15.00
2018,06,04,14,50,15.00
2018,06,04,14,51,15.00
2018,06,04,14,52,15.00
2018,06,04,14,53,15.00
2018,06,04,14,54,14.90
2018,06,04,14,55,14.80
2018,06,04,14,56,14.80
2018,06,04,14,57,14.70
2018,06,04,14,58,14.70
2018,06,04,14,59,14.70
2018,06,04,15,00,14.70
2018,06,04,15,01,14.70
2018,06,04,15,02,14.70
2018,06,04,15,03,14.70
2018,06,04,15,04,14.80
2018,06,04,15,05,14.70
2018,06,04,15,06,14.70
2018,06,04,15,07,14.90
2018,06,04,15,08,15.00
2018,06,04,15,09,15.10
2018,06,04,15,10,15.10
2018,06,04,15,11,15.20
2018,06,04,15,12,15.20
2018,06,04,15,13,15.10
2018,06,04,15,14,15.00
2018,06,04,15,15,14.90
2018,06,04,15,16,14.80
2018,06,04,15,17,14.70
2018,06,04,15,18,14.70
2018,06,04,15,19,14.70
2018,06,04,15,20,14.70
2018,06,04,15,21,14.60
2018,06,04,15,22,14.50
2018,06,04,15,23,14.50
2018,06,04,15,24,14.40
2018,06,04,15,25,14.30
2018,06,04,15,26,14.30
2018,06,04,15,27,14.30
2018,06,04,15,28,14.30
2018,06,04,15,29,14.30
2018,06,04,15,30,14.30
2018,06,04,15,31,14.30
2018,06,04,15,32,14.20
2018,06,04,15,33,14.20
2018,06,04,15,34,14.30
2018,06,04,15,35,14.30
2018,06,04,15,36,14.30
2018,06,04,15,37,14.30
2018,06,04,15,38,14.40
2018,06,04,15,39,14.40
2018,06,04,15,40,14.40
2018,06,04,15,41,14.30
2018,06,04,15,42,14.30
2018,06,04,15,43,14.30
2018,06,04,15,44,14.20
2018,06,04,15,45,14.10
2018,06,04,15,46,14.10
2018,06,04,15,47,14.10
2018,06,04,15,48,14.10
2018,06,04,15,49,14.00
2018,06,04,15,50,14.00
2018,06,04,15,51,14.00
2018,06,04,15,52,14.10
2018,06,04,15,53,14.10
2018,06,04,15,54,14.10
2018,06,04,15,55,14.10
2018,06,04,15,56,14.10
2018,06,04,15,57,14.10
2018,06,04,15,58,14.10
2018,06,04,15,59,14.10
2018,06,04,16,00,14.20
2018,06,04,16,01,14.20
2018,06,04,16,02,14.20
2018,06,04,16,03,14.20
2018,06,04,16,04,14.30
2018,06,04,16,05,14.30
2018,06,04,16,06,14.30
2018,06,04,16,07,14.40
2018,06,04,16,08,14.40
2018,06,04,16,09,14.40
2018,06,04,16,10,14.50
2018,06,04,16,11,14.50
2018,06,04,16,12,14.60
2018,06,04,16,13,14.60
2018,06,04,16,14,14.60
2018,06,04,16,15,14.60
2018,06,04,16,16,14.70
2018,06,04,16,17,14.70
2018,06,04,16,18,14.80
2018,06,04,16,19,14.80
2018,06,04,16,20,14.80
2018,06,04,16,21,14.80
2018,06,04,16,22,14.80
2018,06,04,16,23,14.80
2018,06,04,16,24,14.80
2018,06,04,16,25,14.70
2018,06,04,16,26,14.70
2018,06,04,16,27,14.70
2018,06,04,16,28,14.60
2018,06,04,16,29,14.60
2018,06,04,16,30,14.60
2018,06,04,16,31,14.60
2018,06,04,16,32,14.60
2018,06,04,16,33,14.60
2018,06,04,16,34,14.60
2018,06,04,16,35,14.60
2018,06,04,16,36,14.60
2018,06,04,16,37,14.60
2018,06,04,16,38,14.70
2018,06,04,16,39,14.70
2018,06,04,16,40,14.70
2018,06,04,16,41,14.70
2018,06,04,16,42,14.70
2018,06,04,16,43,14.70
2018,06,04,16,44,14.80
2018,06,04,16,45,14.80
2018,06,04,16,46,14.80
2018,06,04,16,47,14.80
2018,06,04,16,48,14.80
2018,06,04,16,49,14.80
2018,06,04,16,50,14.80
2018,06,04,16,51,14.80
2018,06,04,16,52,14.80
2018,06,04,16,53,14.90
2018,06,04,16,54,14.90
2018,06,04,16,55,15.00
2018,06,04,16,56,15.10
2018,06,04,16,57,15.20
2018,06,04,16,58,15.30
2018,06,04,16,59,15.30
2018,06,04,17,00,15.40
2018,06,04,17,01,15.50
2018,06,04,17,02,15.50
2018,06,04,17,03,15.50
2018,06,04,17,04,15.40
2018,06,04,17,05,15.40
2018,06,04,17,06,15.40
2018,06,04,17,07,15.40
2018,06,04,17,08,15.40
2018,06,04,17,09,15.50
2018,06,04,17,10,15.60
2018,06,04,17,11,15.60
2018,06,04,17,12,15.60
2018,06,04,17,13,15.60
2018,06,04,17,14,15.60
2018,06,04,17,15,15.60
2018,06,04,17,16,15.50
2018,06,04,17,17,15.40
2018,06,04,17,18,15.40
2018,06,04,17,19,15.50
2018,06,04,17,20,15.50
2018,06,04,17,21,15.50
2018,06,04,17,22,15.50
2018,06,04,17,23,15.60
2018,06,04,17,24,15.60
2018,06,04,17,25,15.60
2018,06,04,17,26,15.50
2018,06,04,17,27,15.40
2018,06,04,17,28,15.50
2018,06,04,17,29,15.50
2018,06,04,17,30,15.50
2018,06,04,17,31,15.60
2018,06,04,17,32,15.70
2018,06,04,17,33,15.80
2018,06,04,17,34,15.90
2018,06,04,17,35,15.90
2018,06,04,17,36,15.90
2018,06,04,17,37,15.90
2018,06,04,17,38,15.90